Starlink 5307

operational
NORAD ID: 55658 Int'l Des: 2023-021 Owner: SPXS Country: US Constellation: starlink
LEOCIRCULAR

About Starlink 5307

Description loading...

Live Position

Loading 3D Globe...

Upcoming Passes

Altitude History

Altitude vs Time

uPlot chart will show altitude changes over time

Two-Line Element Set

1 55658U 23021AG 26061.60900860 .00001731 00000-0 15290-3 0 9993
2 55658 70.0000 202.1918 0003522 274.1507 85.9249 14.98322147167731
Epoch: Mar 2, 2026 • Age: 39 hours

Current Status

Altitude 581.4 km
Velocity 7.57 km/s
Sub-Earth Point 49.65°N, 35.17°W
Launch Date Feb 17, 2023
Age 3 years
Type internet

Technical Details

Classification Payload
Mass 305.00 kg
Dry Mass 290.00 kg
Total Mass 305.00 kg
Length 0.20 m
Diameter 2.80 m
Span 9.00 m
Shape Box + pan
Manufacturer SPXS
Bus Type Starlink
Phase Status In Orbit
Owner/State SPXS/US

Large Constellations

Loading constellations...